Greenville, ME

6:26 AM EST on December 11, 2019 (GMT -0500)
Greenville

Weather History for KGNR - July, 2019

Change the Weather History Date:

Thursday, July 18, 2019

  Actual Average (WUND) Record (WUND)
Temperature  
Mean Temperature 64 °F -  
Max Temperature 75 °F - - (-1)
Min Temperature 53 °F - - (-1)
Degree Days  
Heating Degree Days 1    
Growing Degree Days 14 (Base 50)    
Moisture  
Dew Point 51 °F    
Average Humidity 62    
Maximum Humidity 83    
Minimum Humidity 35    
Precipitation  
Precipitation 0.00 in - - ()
Sea Level Pressure  
Sea Level Pressure 29.99 in    
Wind  
Wind Speed 5 mph (NE)    
Max Wind Speed 9 mph    
Max Gust Speed -    
Averages and records for this station are not official NWS values.
T = Trace of Precipitation, MM = Missing Value Source: NWS Daily Summary

Daily Weather History Graph

Daily Weather History Graph

Search for Another Location

Airport or City:

Astronomy

Jul. 18, 2019 Rise Set
Actual Time 5:06 AM EDT 8:21 PM EDT
Civil Twilight 4:30 AM EDT 8:57 PM EDT
Nautical Twilight 3:43 AM EDT 9:44 PM EDT
Astronomical Twilight 2:45 AM EDT 10:41 PM EDT
Moon 9:41 PM EDT (7/18) 6:34 AM EDT (7/18)
Length of Visible Light 16h 26m
Length of Day
15h 14m
Full, 97% of the Moon is Illuminated
Jul 18
Full
Jul 24
Last Quarter
Jul 31
New
Aug 7
First Quarter
Aug 15
Full

Hourly Weather History & Observations

Time (EDT) Temp. Dew Point Humidity Pressure Visibility Wind Dir Wind Speed Gust Speed Precip Events Conditions
12:56 AM 62.1 °F 51.1 °F 67% 29.96 in - North 8.1 mph - N/A   Unknown
1:56 AM 59.0 °F 51.1 °F 75% 29.98 in - North 8.1 mph - N/A   Unknown
2:56 AM 57.0 °F 48.0 °F 72% 29.99 in - NNE 5.8 mph - N/A   Unknown
3:56 AM 55.0 °F 46.9 °F 74% 30.01 in - North 5.8 mph - N/A   Unknown
4:56 AM 53.1 °F 48.0 °F 83% 30.02 in - Variable 3.5 mph - N/A   Unknown
5:56 AM 54.0 °F 46.0 °F 75% 30.03 in - North 9.2 mph - N/A   Unknown
6:56 AM 57.0 °F 46.9 °F 69% 30.04 in - Calm Calm - N/A   Unknown
7:56 AM 60.1 °F 48.0 °F 64% 30.05 in - Calm Calm - N/A   Unknown
8:56 AM 63.0 °F 50.0 °F 63% 30.05 in - North 3.5 mph - N/A   Unknown
9:56 AM 64.9 °F 51.1 °F 61% 30.04 in - Variable 4.6 mph - N/A   Unknown
10:56 AM 66.9 °F 51.1 °F 57% 30.04 in - Calm Calm - N/A   Unknown
11:56 AM 71.1 °F 51.1 °F 49% 30.02 in - Variable 3.5 mph - N/A   Unknown
12:56 PM 73.0 °F 48.0 °F 41% 30.00 in - NW 3.5 mph - N/A   Unknown
1:56 PM 73.9 °F 45.0 °F 35% 29.98 in - Calm Calm - N/A   Unknown
2:56 PM 75.0 °F 48.9 °F 40% 29.97 in - Variable 4.6 mph - N/A   Unknown
3:56 PM 75.0 °F 53.1 °F 46% 29.95 in - Variable 4.6 mph - N/A   Unknown
4:56 PM 75.0 °F 54.0 °F 48% 29.95 in - Variable 4.6 mph - N/A   Unknown
5:56 PM 73.9 °F 54.0 °F 50% 29.95 in - ESE 6.9 mph - N/A   Unknown
6:56 PM 72.0 °F 55.0 °F 55% 29.95 in - Variable 4.6 mph - N/A   Unknown
7:56 PM 68.0 °F 55.9 °F 65% 29.95 in - SSE 4.6 mph - N/A   Unknown
8:56 PM 64.9 °F 55.0 °F 70% 29.94 in - SE 5.8 mph - N/A   Unknown
9:56 PM 63.0 °F 55.0 °F 75% 29.95 in - Calm Calm - N/A   Unknown
10:56 PM 62.1 °F 54.0 °F 75% 29.93 in - SE 3.5 mph - N/A   Unknown
11:56 PM 60.1 °F 54.0 °F 80% 29.92 in - SE 4.6 mph - N/A   Unknown